[[{"header":{"parameterUnit":"m.s-1","parameterCategory":1,"la1":30.2991,"la2":30.254,"lo1":-89.0895,"lo2":-89.0444,"dy":0.0017,"dx":0.0017,"nx":28,"ny":28,"refTime":"2025-05-27T03:00:00:Z","depth":0,"parameterNumber":2,"parameterNumberName":"U-component_of_WINDS"},"data":[0,0,0,0,0,0,0,0,0,0,0,0,0,0,0,0,0,0,0,0,0,0,0,0,0,0,0,0,0,0,0,0,0,0,0,0,0,0,0,0,0,0,0,0,0,0,0,0,0,0,0,0,0,0,0,0,0,0,1.6042,1.6042,0,1.6033,1.6033,1.6033,1.5961,1.5959,1.5957,1.5956,1.5949,1.5951,1.5952,0,0,0,0,0,0,0,0,0,0,0,0,0,1.5995,1.5996,1.6042,1.6042,1.6041,1.6033,1.6033,1.6033,1.5961,1.5959,1.5957,1.5955,1.5949,1.5951,1.5952,0,0,0,0,0,0,0,0,0,0,0,0,0,1.6004,1.5996,1.6042,1.6005,1.6001,1.6033,1.6033,1.6033,1.5962,1.5959,1.5956,1.5954,1.5948,1.595,1.5953,1.602,0,0,1.5959,1.596,0,0,0,0,0,0,0,0,1.6003,1.6005,1.601,1.6007,1.6003,1.5995,1.6014,1.6029,1.5962,1.5977,1.5956,1.5953,1.5967,1.5967,1.5972,1.602,1.602,1.596,1.5961,1.5962,1.5963,0,0,0,0,0,0,0,1.6003,1.6005,1.6038,1.601,1.6006,1.5988,1.5986,1.6016,1.5987,1.5975,1.597,1.597,1.5965,1.597,1.5971,1.6019,1.596,1.5962,1.5963,1.5964,1.6118,1.612,0,0,0,0,0,0,1.6007,1.6005,1.6039,1.6038,1.5997,1.5991,1.5989,1.6001,1.5987,1.5982,1.5972,1.5967,1.5967,1.5969,1.5971,1.6046,1.5962,1.5964,1.5965,1.6115,1.6118,1.6121,0,0,0,0,0,0,1.6006,1.6011,1.6039,1.602,1.6022,1.5995,1.6008,1.6002,1.6007,1.5984,1.5979,1.5983,1.5965,1.5967,1.6007,1.6045,1.5965,1.5967,1.6112,1.6116,1.612,1.6199,0,0,0,0,0,0,1.6005,1.6011,1.6037,1.6021,1.6024,1.6076,1.6011,1.6004,1.6011,1.6003,1.5993,1.5989,1.5963,1.6004,1.6009,1.6046,1.5969,1.6108,1.6113,1.6118,1.6193,1.6205,1.6216,0,0,0,0,0,1.6004,1.6061,1.6039,1.6043,1.6056,1.6079,1.608,1.6049,1.6014,1.604,1.6024,1.5989,1.604,1.6009,1.6014,1.6052,1.6106,1.6112,1.6118,1.6188,1.6203,1.6216,0,0,0,0,0,0,1.6085,1.6059,1.6034,1.6088,1.6085,1.6067,1.6098,1.6067,1.6076,1.6069,1.603,1.6028,1.6073,1.6067,1.6033,1.6114,1.6066,1.6074,1.6117,1.6132,1.6143,1.6144,1.5971,0,0,0,0,0,1.6108,1.6129,1.6105,1.6155,1.6155,1.6127,1.6136,1.6111,1.6108,1.6108,1.6095,1.6094,1.6108,1.612,1.6133,1.6191,1.6186,1.622,1.6231,1.6241,1.6248,1.6274,1.6288,1.6141,1.6141,1.6141,0,0,1.6158,1.6146,1.6163,1.6171,1.6167,1.6188,1.6127,1.6153,1.6168,1.6112,1.6148,1.6138,1.6134,1.6182,1.6203,1.6178,1.6287,1.6248,1.6256,1.6258,1.6282,1.6296,1.6308,1.6145,1.6145,1.6144,0,0,1.626,1.6254,1.6293,1.6288,1.6282,1.6261,1.6271,1.6255,1.6246,1.6281,1.6238,1.6255,1.6283,1.628,1.6283,1.6378,1.6345,1.6383,1.6443,1.647,1.6481,1.6491,1.6523,1.6535,1.639,1.639,1.639,0,1.6323,1.6353,1.6317,1.6345,1.6349,1.6296,1.6334,1.6332,1.633,1.6334,1.6306,1.6336,1.633,1.6375,1.6397,1.6402,1.641,1.6384,1.6482,1.6492,1.6501,1.6531,1.6543,1.6395,1.6394,1.6394,1.6393,0,1.643,1.6451,1.6484,1.6481,1.6488,1.6521,1.6489,1.65,1.6474,1.6457,1.6491,1.648,1.6488,1.6497,1.6474,1.6538,1.6522,1.6489,1.644,1.652,1.6547,1.6558,1.6401,1.64,1.6398,1.6397,0,0,1.6586,1.6558,1.657,1.6566,1.6553,1.6569,1.6598,1.6604,1.6613,1.6613,1.6635,1.6657,1.6625,1.6627,1.6602,1.6626,1.6698,1.6589,1.6588,1.6608,1.6765,1.679,1.6804,1.6675,1.6678,1.6679,1.6765,0,1.6681,1.6729,1.6695,1.6748,1.6766,1.6714,1.6738,1.6732,1.6716,1.6728,1.6709,1.6725,1.6682,1.6682,1.6703,1.6685,1.6729,1.6678,1.6695,1.6696,1.6697,1.6818,1.6845,1.6927,1.6775,1.6777,1.6778,0,1.6801,1.6802,1.6857,1.6835,1.6841,1.6864,1.6865,1.6877,1.6868,1.6854,1.6854,1.6821,1.6847,1.6798,1.6831,1.6797,1.6802,1.6793,1.6796,1.6796,1.6742,1.682,1.6952,1.6964,1.6795,1.6794,1.6793,0,1.6906,1.6922,1.6955,1.6954,1.693,1.6947,1.6938,1.6926,1.693,1.693,1.6932,1.6936,1.6939,1.6942,1.691,1.6878,1.6947,1.6896,1.6935,1.6936,1.6952,1.6952,1.7085,1.6957,1.6957,1.6956,1.6956,0,1.7016,1.7051,1.7001,1.7022,1.7059,1.7018,1.7055,1.7041,1.7029,1.7045,1.7001,1.7017,1.6974,1.6985,1.6961,1.6991,1.6993,1.6981,1.6974,1.6984,1.6986,1.6987,1.698,1.696,1.6959,1.6958,1.6958,0,1.7141,1.7109,1.7142,1.7115,1.7108,1.7136,1.7113,1.713,1.7109,1.7129,1.7132,1.7099,1.7109,1.7077,1.7083,1.7066,1.7109,1.7094,1.7112,1.7107,1.7147,1.7143,1.7285,1.7301,1.7164,1.7165,1.7166,0,1.7213,1.7238,1.7213,1.7219,1.7211,1.7224,1.7226,1.7186,1.7191,1.7179,1.7198,1.7203,1.7206,1.7225,1.7201,1.7204,1.7188,1.7237,1.7188,1.7196,1.7186,1.7184,1.7185,1.7248,1.7249,1.7251,1.7252,0,1.7344,1.7326,1.7332,1.7331,1.7335,1.7333,1.7327,1.7335,1.7292,1.7299,1.7308,1.731,1.7313,1.7319,1.7316,1.7306,1.7272,1.7267,1.7276,1.7287,1.7295,1.7289,1.7138,1.7264,1.7263,1.7262,1.7261,1.7261,1.7444,1.7462,1.7445,1.7452,1.7442,1.7437,1.7451,1.7429,1.7436,1.7434,1.741,1.7423,1.7409,1.7401,1.7394,1.7403,1.738,1.7394,1.7397,1.74,1.7406,1.7294,1.7403,1.7402,1.7402,1.7401,1.7401,0,1.757,1.7556,1.7562,1.7554,1.7559,1.7523,1.7514,1.752,1.7531,1.7521,1.7523,1.7531,1.7535,1.751,1.751,1.7522,1.7506,1.7523,1.7522,1.7519,1.7428,1.7419,1.7536,1.7536,1.7536,1.7536,1.7536,1.7536,1.7637,1.7664,1.7644,1.7665,1.765,1.7661,1.7658,1.7653,1.7643,1.7654,1.7656,1.7639,1.7621,1.7619,1.7621,1.7613,1.7615,1.7638,1.7625,1.754,1.7526,1.7514,1.7505,1.7639,1.7639,1.7715,1.7716,1.7717]},{"header":{"parameterUnit":"m.s-1","parameterCategory":1,"la1":30.2991,"la2":30.254,"lo1":-89.0895,"lo2":-89.0444,"dy":0.0017,"dx":0.0017,"nx":28,"ny":28,"refTime":"2025-05-27T03:00:00:Z","depth":0,"parameterNumber":3,"parameterNumberName":"V-component_of_WINDS"},"data":[0,0,0,0,0,0,0,0,0,0,0,0,0,0,0,0,0,0,0,0,0,0,0,0,0,0,0,0,0,0,0,0,0,0,0,0,0,0,0,0,0,0,0,0,0,0,0,0,0,0,0,0,0,0,0,0,0,0,4.236,4.2361,0,4.2476,4.2477,4.2478,4.2461,4.2459,4.2457,4.2456,4.2566,4.2571,4.2576,0,0,0,0,0,0,0,0,0,0,0,0,0,4.2114,4.2118,4.2359,4.2361,4.2362,4.2476,4.2477,4.2479,4.2462,4.2459,4.2457,4.2455,4.2565,4.257,4.2576,0,0,0,0,0,0,0,0,0,0,0,0,0,4.2224,4.212,4.2359,4.2368,4.237,4.2475,4.2477,4.2479,4.2462,4.2459,4.2456,4.2454,4.2563,4.257,4.2577,4.2679,0,0,4.2599,4.2602,0,0,0,0,0,0,0,0,4.2218,4.2233,4.2365,4.2367,4.237,4.2451,4.2431,4.2546,4.2463,4.2427,4.2455,4.2452,4.253,4.2539,4.2567,4.2684,4.2689,4.2599,4.2603,4.2607,4.2609,0,0,0,0,0,0,0,4.221,4.2228,4.2405,4.2367,4.237,4.2363,4.2375,4.2453,4.2493,4.243,4.2429,4.2443,4.253,4.256,4.257,4.269,4.2599,4.2605,4.261,4.2612,4.2894,4.2897,0,0,0,0,0,0,4.2201,4.2222,4.2401,4.2409,4.2285,4.2369,4.2383,4.2428,4.2492,4.2499,4.2445,4.2442,4.255,4.2561,4.2574,4.2696,4.2606,4.2613,4.2617,4.2891,4.2895,4.2899,0,0,0,0,0,0,4.2196,4.2218,4.2397,4.2315,4.2337,4.2377,4.2427,4.2432,4.2462,4.2504,4.251,4.247,4.2548,4.2564,4.2653,4.27,4.2616,4.2623,4.2887,4.2892,4.2897,4.2943,0,0,0,0,0,0,4.2189,4.2216,4.2257,4.2316,4.2342,4.2477,4.243,4.2436,4.2475,4.2472,4.2528,4.2535,4.2547,4.2642,4.266,4.2708,4.2628,4.2883,4.289,4.2895,4.2937,4.2949,4.2959,0,0,0,0,0,4.218,4.2264,4.226,4.2281,4.2395,4.248,4.2494,4.2509,4.2479,4.2519,4.2546,4.2533,4.2692,4.2652,4.2671,4.2722,4.288,4.2888,4.2895,4.2933,4.2947,4.2958,0,0,0,0,0,0,4.2207,4.2272,4.2268,4.2374,4.2422,4.2477,4.2529,4.2523,4.2579,4.2573,4.2586,4.2599,4.2689,4.2714,4.2668,4.2823,4.2782,4.2793,4.2804,4.2817,4.2828,4.2819,4.2634,0,0,0,0,0,4.2226,4.2292,4.2344,4.2432,4.2457,4.2489,4.2526,4.2534,4.2583,4.2602,4.2636,4.2681,4.2742,4.2781,4.2839,4.2941,4.2952,4.2986,4.2996,4.3005,4.3014,4.3068,4.3083,4.2922,4.2922,4.2922,0,0,4.2264,4.2308,4.2348,4.2439,4.2477,4.2543,4.2506,4.2577,4.2625,4.2612,4.2699,4.2725,4.2777,4.2873,4.2917,4.2897,4.3061,4.3014,4.302,4.3025,4.3077,4.3092,4.3106,4.2927,4.2926,4.2926,0,0,4.2367,4.2408,4.2486,4.2525,4.2584,4.2604,4.2623,4.2679,4.2697,4.2785,4.2776,4.2832,4.2936,4.2973,4.3005,4.3122,4.3111,4.314,4.3194,4.3247,4.326,4.3271,4.3311,4.3326,4.3149,4.3149,4.3149,0,4.2406,4.2508,4.2525,4.2598,4.2637,4.2631,4.2707,4.2744,4.2817,4.2843,4.282,4.295,4.2985,4.3089,4.3117,4.3144,4.3163,4.3133,4.3257,4.3269,4.3279,4.3318,4.3333,4.3152,4.3152,4.3152,4.3151,0,4.2553,4.2623,4.2678,4.2752,4.2797,4.2871,4.2897,4.294,4.2943,4.2965,4.3053,4.3094,4.316,4.3185,4.3188,4.3289,4.3275,4.3255,4.3213,4.3298,4.3334,4.3349,4.3157,4.3156,4.3155,4.3154,0,0,4.2676,4.2759,4.2779,4.2812,4.2876,4.2929,4.3002,4.3069,4.3104,4.3155,4.3214,4.3302,4.3284,4.3321,4.3327,4.3374,4.3462,4.3348,4.3349,4.3367,4.3574,4.3588,4.3605,4.3455,4.3458,4.346,4.3569,0,4.2784,4.2916,4.2933,4.3049,4.3112,4.3107,4.317,4.3214,4.3236,4.3291,4.3314,4.3376,4.3348,4.337,4.3416,4.3442,4.3503,4.3434,4.3508,4.3511,4.3495,4.3624,4.3639,4.374,4.3583,4.3586,4.3588,0,4.2929,4.2986,4.3109,4.3164,4.3191,4.3248,4.3309,4.3363,4.3412,4.3425,4.3466,4.3467,4.3539,4.3495,4.3592,4.3545,4.3576,4.3593,4.3597,4.3603,4.3554,4.3633,4.3773,4.3787,4.361,4.3608,4.3607,0,4.3005,4.3112,4.3199,4.3228,4.3295,4.3334,4.3363,4.341,4.3449,4.3501,4.3526,4.3586,4.3618,4.3663,4.3678,4.3645,4.3775,4.3732,4.3785,4.3785,4.3812,4.381,4.3958,4.3834,4.3834,4.3833,4.3833,0,4.3124,4.3198,4.3235,4.3288,4.3371,4.3388,4.3468,4.3495,4.3537,4.3593,4.3591,4.3643,4.3661,4.3716,4.3728,4.3806,4.3821,4.3831,4.3833,4.3831,4.3829,4.3851,4.3844,4.3837,4.3836,4.3836,4.3835,0,4.3222,4.325,4.3344,4.34,4.3415,4.3474,4.352,4.357,4.3591,4.3663,4.368,4.3713,4.3777,4.3797,4.3873,4.3881,4.3972,4.3969,4.3957,4.3957,4.4008,4.4002,4.4174,4.4196,4.4058,4.406,4.4061,0,4.3296,4.3354,4.3416,4.3455,4.3487,4.3549,4.3589,4.3607,4.3648,4.3709,4.3751,4.3815,4.3867,4.3969,4.3997,4.4055,4.4052,4.4108,4.4061,4.4056,4.4052,4.4048,4.4053,4.4117,4.4118,4.4119,4.412,0,4.3423,4.3434,4.3493,4.3557,4.3606,4.3656,4.3704,4.3736,4.376,4.3806,4.3873,4.3914,4.3993,4.4055,4.4114,4.4141,4.4134,4.4135,4.415,4.4148,4.4138,4.4143,4.398,4.4131,4.413,4.4129,4.4129,4.4128,4.3511,4.3562,4.3614,4.3679,4.3718,4.3763,4.3813,4.3842,4.3898,4.3966,4.3972,4.4044,4.409,4.4169,4.4199,4.4253,4.4236,4.4258,4.4264,4.4269,4.4272,4.4131,4.4263,4.4263,4.4263,4.4263,4.4262,0,4.3637,4.3671,4.3731,4.38,4.3851,4.3843,4.3896,4.3938,4.4002,4.4047,4.4099,4.4174,4.4235,4.4269,4.4329,4.4365,4.4364,4.438,4.4377,4.4383,4.4284,4.4265,4.4381,4.4381,4.4381,4.4381,4.4381,4.4381,4.3709,4.3794,4.3811,4.3914,4.3946,4.4018,4.4049,4.409,4.4126,4.4211,4.4263,4.4285,4.4325,4.4388,4.4442,4.445,4.4471,4.449,4.4496,4.4402,4.439,4.4379,4.436,4.4495,4.4495,4.459,4.4591,4.4592]}]]